[[{"header":{"parameterUnit":"m.s-1","parameterCategory":1,"la1":30.2991,"la2":30.254,"lo1":-89.0895,"lo2":-89.0444,"dy":0.0017,"dx":0.0017,"nx":28,"ny":28,"refTime":"2024-08-10T03:00:00:Z","depth":0,"parameterNumber":2,"parameterNumberName":"U-component_of_WINDS"},"data":[0,0,0,0,0,0,0,0,0,0,0,0,0,0,0,0,0,0,0,0,0,0,0,0,0,0,0,0,0,0,0,0,0,0,0,0,0,0,0,0,0,0,0,0,0,0,0,0,0,0,0,0,0,0,0,0,0,0,1.9497,1.9498,0,1.9607,1.9608,1.961,1.9579,1.9577,1.9575,1.9573,1.9689,1.9694,1.9699,0,0,0,0,0,0,0,0,0,0,0,0,0,1.9265,1.927,1.9497,1.9498,1.95,1.9607,1.9608,1.961,1.958,1.9577,1.9574,1.9572,1.9687,1.9693,1.9699,0,0,0,0,0,0,0,0,0,0,0,0,0,1.937,1.9271,1.9497,1.9497,1.9498,1.9607,1.9608,1.961,1.958,1.9577,1.9573,1.957,1.9685,1.9692,1.97,1.9815,0,0,1.9724,1.9727,0,0,0,0,0,0,0,0,1.9364,1.9378,1.9496,1.9497,1.9499,1.9576,1.9569,1.9679,1.9581,1.9549,1.9572,1.9569,1.9654,1.9664,1.9692,1.9821,1.9826,1.9725,1.9729,1.9733,1.9735,0,0,0,0,0,0,0,1.9357,1.9374,1.9541,1.9498,1.95,1.9494,1.9505,1.959,1.9619,1.9552,1.955,1.9563,1.9654,1.9685,1.9695,1.9827,1.9724,1.9731,1.9736,1.9739,2.0061,2.0064,0,0,0,0,0,0,1.9348,1.9368,1.9537,1.9544,1.9422,1.9501,1.9513,1.9555,1.9618,1.9625,1.9566,1.9561,1.9673,1.9686,1.9699,1.9841,1.9733,1.974,1.9744,2.0057,2.0062,2.0066,0,0,0,0,0,0,1.9343,1.9363,1.9533,1.9455,1.9476,1.9508,1.9555,1.9559,1.9589,1.9629,1.9634,1.9591,1.9671,1.9688,1.9787,1.9844,1.9743,1.975,2.0052,2.0058,2.0064,2.0124,0,0,0,0,0,0,1.9336,1.9362,1.9404,1.9456,1.9481,1.9618,1.9558,1.9563,1.9602,1.9597,1.9654,1.966,1.967,1.9776,1.9795,1.9853,1.9756,2.0047,2.0055,2.0062,2.0117,2.0131,2.0143,0,0,0,0,0,1.9328,1.9416,1.9406,1.9427,1.9534,1.9621,1.9635,1.9643,1.9607,1.9651,1.9677,1.9659,1.9835,1.9786,1.9808,1.9869,2.0044,2.0053,2.0061,2.0111,2.0128,2.0142,0,0,0,0,0,0,1.937,1.9423,1.9413,1.952,1.9566,1.9615,1.9671,1.966,1.9718,1.9711,1.972,1.9733,1.9836,1.9862,1.9807,1.9986,1.9934,1.9948,1.9965,1.9981,1.9994,1.9986,1.9763,0,0,0,0,0,1.9391,1.9456,1.9499,1.959,1.9614,1.9639,1.9677,1.9679,1.9728,1.9747,1.9781,1.983,1.9897,1.994,2.0003,2.012,2.0134,2.0173,2.0186,2.0197,2.0209,2.0276,2.0295,2.0094,2.0094,2.0094,0,0,1.9436,1.9474,1.9514,1.9599,1.9635,1.9705,1.9655,1.9729,1.9781,1.9759,1.9855,1.9882,1.9938,2.0047,2.0097,2.0073,2.0268,2.0208,2.0216,2.0222,2.0287,2.0306,2.0323,2.01,2.0099,2.0098,0,0,1.9554,1.9588,1.9669,1.9707,1.9762,1.9779,1.9798,1.9851,1.9867,1.9964,1.995,2.0013,2.0127,2.0168,2.0204,2.0342,2.0329,2.0363,2.0431,2.0497,2.0513,2.0527,2.0579,2.0597,2.0374,2.0374,2.0374,0,1.9604,1.9705,1.9712,1.9788,1.9828,1.9811,1.9895,1.9932,2.0005,2.0034,2.0005,2.015,2.0186,2.0307,2.0341,2.037,2.0395,2.0356,2.051,2.0524,2.0537,2.0587,2.0606,2.0378,2.0378,2.0377,2.0377,0,1.9765,1.9836,1.9895,1.9968,2.0014,2.0093,2.0114,2.0161,2.016,2.0181,2.0282,2.0325,2.0398,2.0427,2.0427,2.055,2.0533,2.0507,2.0455,2.056,2.0607,2.0626,2.0384,2.0383,2.0381,2.038,0,0,1.991,1.9987,2.0009,2.0044,2.0105,2.0162,2.0242,2.0314,2.0355,2.0407,2.0477,2.0576,2.0553,2.0594,2.0599,2.0656,2.0767,2.0624,2.0625,2.0651,2.0909,2.0929,2.0951,2.0758,2.0762,2.0765,2.0905,0,2.0035,2.0176,2.0186,2.0314,2.0382,2.0369,2.044,2.0487,2.0509,2.0572,2.0597,2.0667,2.0631,2.0656,2.0712,2.0742,2.0819,2.0731,2.0826,2.0829,2.0813,2.0975,2.0996,2.1126,2.0923,2.0926,2.0928,0,2.0199,2.0258,2.0393,2.0449,2.0478,2.0541,2.0609,2.0668,2.0723,2.0735,2.0783,2.0781,2.0867,2.0812,2.0932,2.0872,2.0912,2.0932,2.0938,2.0948,2.0886,2.0991,2.1167,2.1187,2.0957,2.0955,2.0953,0,2.0295,2.0407,2.0503,2.0533,2.06,2.0645,2.0675,2.0726,2.077,2.0831,2.086,2.093,2.0969,2.1024,2.1042,2.1,2.1163,2.1109,2.1178,2.1178,2.1213,2.1211,2.14,2.1236,2.1236,2.1236,2.1235,0,2.0434,2.0518,2.0548,2.0607,2.0702,2.0714,2.0808,2.0836,2.0882,2.0948,2.0942,2.1004,2.1023,2.1091,2.1105,2.1205,2.1222,2.1236,2.1239,2.1238,2.1236,2.1264,2.1256,2.1241,2.124,2.1239,2.1238,0,2.0556,2.0579,2.0684,2.074,2.0756,2.0824,2.0872,2.0931,2.0953,2.1038,2.1058,2.1094,2.1173,2.1196,2.1291,2.1301,2.1418,2.1412,2.14,2.1401,2.1469,2.1463,2.1684,2.1715,2.1529,2.1531,2.1533,0,2.0644,2.0709,2.0772,2.0816,2.0849,2.0919,2.0964,2.098,2.1028,2.1097,2.1148,2.1226,2.1289,2.1417,2.1452,2.1526,2.1523,2.1595,2.1534,2.1532,2.1527,2.1524,2.1532,2.1607,2.1609,2.1611,2.1612,0,2.0799,2.0808,2.0873,2.0943,2.0998,2.1054,2.1108,2.1145,2.1169,2.1223,2.1304,2.1353,2.1451,2.153,2.1605,2.1639,2.1631,2.1631,2.1652,2.1651,2.1642,2.165,2.1433,2.1626,2.1625,2.1624,2.1623,2.1622,2.0908,2.0966,2.1021,2.1095,2.1138,2.1189,2.1248,2.1279,2.1346,2.1427,2.1432,2.1521,2.1578,2.1678,2.1716,2.1787,2.1766,2.1795,2.1802,2.181,2.1816,2.163,2.18,2.18,2.18,2.1799,2.1799,0,2.1064,2.1099,2.1167,2.1244,2.1303,2.129,2.1351,2.1401,2.1479,2.1532,2.1595,2.169,2.1768,2.181,2.1888,2.1937,2.1936,2.1957,2.1954,2.1963,2.1829,2.1805,2.1957,2.1957,2.1957,2.1957,2.1957,2.1957,2.1152,2.1251,2.1267,2.1389,2.1424,2.151,2.1546,2.1595,2.1638,2.1744,2.1808,2.1836,2.1886,2.1968,2.204,2.205,2.208,2.2105,2.2114,2.1988,2.1972,2.1957,2.1934,2.2111,2.2111,2.2242,2.2243,2.2244]},{"header":{"parameterUnit":"m.s-1","parameterCategory":1,"la1":30.2991,"la2":30.254,"lo1":-89.0895,"lo2":-89.0444,"dy":0.0017,"dx":0.0017,"nx":28,"ny":28,"refTime":"2024-08-10T03:00:00:Z","depth":0,"parameterNumber":3,"parameterNumberName":"V-component_of_WINDS"},"data":[0,0,0,0,0,0,0,0,0,0,0,0,0,0,0,0,0,0,0,0,0,0,0,0,0,0,0,0,0,0,0,0,0,0,0,0,0,0,0,0,0,0,0,0,0,0,0,0,0,0,0,0,0,0,0,0,0,0,-0.8179,-0.8177,0,-0.7957,-0.7955,-0.7952,-0.7947,-0.795,-0.7952,-0.7955,-0.7722,-0.7713,-0.7704,0,0,0,0,0,0,0,0,0,0,0,0,0,-0.8595,-0.8588,-0.818,-0.8177,-0.8174,-0.7958,-0.7955,-0.7951,-0.7946,-0.795,-0.7953,-0.7956,-0.7724,-0.7714,-0.7704,0,0,0,0,0,0,0,0,0,0,0,0,0,-0.8398,-0.8585,-0.818,-0.8145,-0.814,-0.7958,-0.7954,-0.7951,-0.7946,-0.795,-0.7954,-0.7958,-0.7728,-0.7715,-0.7702,-0.7538,0,0,-0.7662,-0.7656,0,0,0,0,0,0,0,0,-0.8409,-0.8383,-0.8153,-0.8147,-0.8141,-0.7984,-0.8016,-0.7812,-0.7945,-0.8019,-0.7955,-0.796,-0.7805,-0.7786,-0.7735,-0.7527,-0.7517,-0.7661,-0.7653,-0.7647,-0.7643,0,0,0,0,0,0,0,-0.8423,-0.8392,-0.8091,-0.815,-0.8143,-0.814,-0.8116,-0.7977,-0.7891,-0.8013,-0.8012,-0.7986,-0.7803,-0.7748,-0.7729,-0.7514,-0.7661,-0.7649,-0.7641,-0.7636,-0.7161,-0.7157,0,0,0,0,0,0,-0.8444,-0.8404,-0.8098,-0.8085,-0.8288,-0.8129,-0.8103,-0.803,-0.7893,-0.7876,-0.7983,-0.7987,-0.7768,-0.7745,-0.7721,-0.752,-0.7647,-0.7635,-0.7627,-0.7166,-0.716,-0.7155,0,0,0,0,0,0,-0.8453,-0.8417,-0.8107,-0.8244,-0.8204,-0.8117,-0.8036,-0.8024,-0.7969,-0.787,-0.7855,-0.7943,-0.777,-0.774,-0.7584,-0.7512,-0.7629,-0.7617,-0.7172,-0.7164,-0.7158,-0.7118,0,0,0,0,0,0,-0.8465,-0.842,-0.8357,-0.8243,-0.8197,-0.7975,-0.8032,-0.8016,-0.7947,-0.795,-0.7828,-0.7812,-0.7771,-0.7604,-0.7571,-0.7496,-0.7607,-0.7178,-0.7168,-0.716,-0.7125,-0.711,-0.7097,0,0,0,0,0,-0.848,-0.8353,-0.8354,-0.8318,-0.8117,-0.7971,-0.7945,-0.7902,-0.7941,-0.7877,-0.7814,-0.7816,-0.7526,-0.7588,-0.7551,-0.7471,-0.7182,-0.7171,-0.7161,-0.7131,-0.7113,-0.7098,0,0,0,0,0,0,-0.8459,-0.8338,-0.8337,-0.817,-0.8081,-0.797,-0.7888,-0.7884,-0.778,-0.7787,-0.7737,-0.7709,-0.7555,-0.7498,-0.7569,-0.7306,-0.7358,-0.734,-0.7349,-0.7331,-0.7317,-0.7333,-0.7596,0,0,0,0,0,-0.8436,-0.8329,-0.8228,-0.809,-0.8046,-0.7975,-0.7909,-0.7885,-0.7789,-0.7751,-0.7677,-0.7583,-0.7471,-0.7398,-0.7289,-0.7118,-0.7091,-0.7045,-0.7031,-0.702,-0.7004,-0.691,-0.6888,-0.712,-0.712,-0.7121,0,0,-0.8385,-0.8306,-0.824,-0.8084,-0.8012,-0.7901,-0.7943,-0.7823,-0.774,-0.7732,-0.7581,-0.7524,-0.7416,-0.7252,-0.7176,-0.72,-0.6935,-0.7007,-0.6999,-0.6988,-0.6897,-0.6875,-0.6855,-0.7113,-0.7115,-0.7116,0,0,-0.8236,-0.8166,-0.8044,-0.7972,-0.7864,-0.7818,-0.7789,-0.7679,-0.7641,-0.749,-0.7482,-0.7382,-0.719,-0.7114,-0.705,-0.6876,-0.6874,-0.6842,-0.6769,-0.6678,-0.6659,-0.6643,-0.6581,-0.6559,-0.6827,-0.6826,-0.6826,0,-0.8186,-0.802,-0.7981,-0.7862,-0.7793,-0.7784,-0.766,-0.7592,-0.7453,-0.7405,-0.7434,-0.7194,-0.7121,-0.694,-0.6898,-0.6846,-0.6811,-0.6854,-0.6666,-0.6649,-0.6633,-0.6573,-0.6549,-0.6823,-0.6824,-0.6824,-0.6824,0,-0.7964,-0.785,-0.7764,-0.7633,-0.7555,-0.7434,-0.7375,-0.7301,-0.7284,-0.7235,-0.7081,-0.6994,-0.6868,-0.6823,-0.6804,-0.6639,-0.6657,-0.6677,-0.6728,-0.6608,-0.6551,-0.6527,-0.6819,-0.682,-0.6821,-0.6822,0,0,-0.7793,-0.7645,-0.7613,-0.7555,-0.7436,-0.7346,-0.7225,-0.7104,-0.7042,-0.6947,-0.6843,-0.6683,-0.6701,-0.6628,-0.6601,-0.6521,-0.639,-0.655,-0.6547,-0.6523,-0.6203,-0.6188,-0.6163,-0.6389,-0.6384,-0.6381,-0.6212,0,-0.763,-0.7417,-0.7379,-0.7192,-0.7086,-0.7077,-0.6972,-0.6887,-0.6839,-0.6741,-0.6687,-0.6574,-0.6606,-0.6563,-0.6484,-0.6422,-0.6324,-0.6434,-0.6291,-0.6286,-0.6317,-0.6133,-0.6116,-0.5961,-0.6189,-0.6186,-0.6183,0,-0.7411,-0.7314,-0.7117,-0.7016,-0.6969,-0.6875,-0.6763,-0.667,-0.6574,-0.6544,-0.6466,-0.6448,-0.6322,-0.6381,-0.6206,-0.6281,-0.6221,-0.6182,-0.6175,-0.6159,-0.6226,-0.611,-0.591,-0.5887,-0.6147,-0.615,-0.6153,0,-0.7306,-0.7126,-0.6985,-0.6935,-0.6812,-0.6747,-0.6692,-0.6601,-0.6532,-0.6433,-0.6387,-0.6275,-0.6212,-0.6125,-0.6078,-0.6126,-0.5906,-0.5961,-0.5877,-0.5878,-0.5829,-0.5833,-0.5616,-0.5793,-0.5793,-0.5794,-0.5794,0,-0.7128,-0.7007,-0.6936,-0.6849,-0.6714,-0.6673,-0.654,-0.6487,-0.6406,-0.6308,-0.6294,-0.6202,-0.6146,-0.6045,-0.6008,-0.5869,-0.5841,-0.5813,-0.5804,-0.5813,-0.5816,-0.5771,-0.578,-0.5787,-0.5789,-0.579,-0.5791,0,-0.6986,-0.6933,-0.6779,-0.6678,-0.6649,-0.6554,-0.6466,-0.6381,-0.6335,-0.6211,-0.618,-0.6106,-0.5988,-0.5933,-0.5785,-0.576,-0.5602,-0.5601,-0.5635,-0.5631,-0.555,-0.5558,-0.5295,-0.5258,-0.5461,-0.5459,-0.5457,0,-0.6874,-0.6782,-0.6672,-0.6606,-0.6551,-0.6445,-0.6376,-0.6332,-0.6259,-0.6145,-0.6074,-0.5956,-0.5859,-0.567,-0.5602,-0.549,-0.5486,-0.5402,-0.5468,-0.5481,-0.5483,-0.5489,-0.548,-0.5389,-0.5387,-0.5385,-0.5384,0,-0.6683,-0.6662,-0.6563,-0.6455,-0.6373,-0.6285,-0.6199,-0.6146,-0.6088,-0.6008,-0.5888,-0.5813,-0.5665,-0.5548,-0.5432,-0.5375,-0.5369,-0.5364,-0.5338,-0.5346,-0.5369,-0.5355,-0.56,-0.5369,-0.5371,-0.5372,-0.5373,-0.5373,-0.6552,-0.647,-0.638,-0.627,-0.6202,-0.6123,-0.6038,-0.5983,-0.5883,-0.576,-0.5741,-0.5613,-0.5521,-0.5366,-0.5305,-0.5204,-0.5223,-0.5186,-0.5177,-0.5168,-0.5163,-0.5387,-0.5183,-0.5183,-0.5183,-0.5184,-0.5184,0,-0.6359,-0.6302,-0.6201,-0.6083,-0.5997,-0.6003,-0.5909,-0.5836,-0.5724,-0.564,-0.5547,-0.541,-0.5297,-0.5222,-0.5107,-0.5041,-0.5036,-0.5012,-0.5016,-0.5003,-0.5152,-0.5186,-0.5019,-0.5019,-0.5019,-0.5019,-0.5019,-0.5019,-0.6248,-0.611,-0.608,-0.5908,-0.5851,-0.5728,-0.5673,-0.56,-0.5533,-0.5382,-0.5289,-0.5242,-0.5161,-0.5042,-0.4939,-0.4919,-0.4877,-0.4853,-0.4834,-0.4975,-0.4992,-0.5009,-0.504,-0.4845,-0.4844,-0.4693,-0.4692,-0.4691]}]]